{"data":{"norad_id":33376,"intl_designator":"2008-045A","name":"GALAXY 19 (G-19)","alt_names":[],"object_type":"PAYLOAD","status":"ACTIVE","operator":null,"country":"US","launch_date":"2008-09-24","launch_site_code":"SEAL","launch_vehicle":null,"mission":null,"orbit_class":"UNKNOWN","rcs_meters":15.8677,"size_class":null,"mass_kg":null,"dimensions":null,"purposes":["comms"],"wikipedia_slug":null,"has_3d_model":false,"image_url":null,"decayed_at":null,"tle_current":{"epoch":"2026-05-25T00:18:38.563776Z","epoch_age_seconds":70611,"freshness":"FRESH","line1":"1 33376U 08045A   26145.01294634 -.00000142  00000+0  00000+0 0  9992","line2":"2 33376   0.0471 104.5742 0002913 326.5315  79.1700  1.00273196 64675","mean_motion":1.00273196,"eccentricity":0.0002913,"inclination_deg":0.0471,"raan_deg":104.5742,"arg_perigee_deg":326.5315,"mean_anomaly_deg":79.17,"bstar":0,"rev_number":6467,"period_min":1436.0766959098,"perigee_km":35773.916940112,"apogee_km":35798.481882505,"semimajor_km":42164.336411308,"source":"CELESTRAK","updated_at":"2026-05-25T13:38:14.327752Z"}}}